Regional Weather Roundup
Issued by NWS

Home | Current Version | Previous Version | Graphics & Text | Print | Product List | Glossary On
Versions: 1 2 3 4 5 6 7 8 9 10 11 12 13 14 15 16 17 18 19 20 21 22 23 24 25 26 27 28 29 30 31 32 33 34 35 36 37 38 39 40 41 42 43 44 45 46 47 48 49 50
704
ASUS45 KSLC 220010
RWRUT

UTAH REGIONAL WEATHER ROUNDUP
NATIONAL WEATHER SERVICE SALT LAKE CITY UT
500 PM MST SUN JAN 21 2018

UTZ001>011-023>025-220100-

NORTHERN UTAH

CITY           SKY/WX    TMP DP  RH WIND       PRES   REMARKS
BRIGHAM CITY   CLEAR     35  20  54 SW8       30.24R WCI  28
HILL AFB       CLEAR     29  20  69 SW7       30.22R WCI  22
LOGAN          MOCLDY    31  20  63 SW6       30.22R WCI  25
OGDEN          CLEAR     33  19  56 SW5       30.23R WCI  29
SALT LAKE CITY PTCLDY    33  23  66 W6        30.25R WCI  28
TOOELE VALLEY  CLEAR     27  21  80 CALM      30.26R
WENDOVER       CLEAR     37  19  48 S10       30.23R WCI  30
HEBER CITY     MOCLDY    30  16  55 SW7G17    30.16R WCI  23
WEST JORDAN    CLEAR     28  21  76 NW5       30.25R WCI  23

$$

UTZ011>015-024>027-220100-

CENTRAL/NORTHEAST UTAH

CITY           SKY/WX    TMP DP  RH WIND       PRES   REMARKS
PROVO AIRPORT  PTCLDY    30  20  66 NW8       30.26R WCI  22
MOAB/CANYONLAN CLOUDY    37  20  50 NW10      30.09R WCI  30
DELTA          CLEAR     27  21  80 SE6       30.27R WCI  20
PRICE          CLEAR     28  11  48 NW17G29   30.08R WCI  16
RICHFIELD      CLOUDY    23  19  86 CALM      30.24R
ROOSEVELT      CLEAR     34  19  55 E10       30.11R WCI  26
VERNAL         MOCLDY    25  16  68 S7        30.11R WCI  17

$$

UTZ013>016-019>022-027-220100-

SOUTHERN UTAH

CITY           SKY/WX    TMP DP  RH WIND       PRES   REMARKS
BRYCE CANYON   CLEAR     20  12  71 NW17      30.12S WCI   5
CEDAR CITY     CLEAR     27  16  63 NE9       30.21R WCI  18
MILFORD        CLEAR     31  20  63 CALM      30.24R
ST GEORGE      CLEAR     45  21  38 NE18      30.24R
HANKSVILLE     CLEAR     37   9  30 NW15      30.15R WCI  28
KANAB          CLEAR     37  10  32 N13       30.22R WCI  29
BLANDING         N/A     30  14  51 NW15G21   30.12R WCI  19

$$

REGIONAL REPORTS     COLORADO/ARIZONA

CITY           SKY/WX    TMP DP  RH WIND       PRES   REMARKS
CRAIG, CO      CLOUDY    22  14  71 NW8       30.05R WCI  12
GRAND JUNCTION PTCLDY    29  20  69 NW14      30.10R WCI  18
RIFLE, CO      MOCLDY    28  16  60 NW13      30.05R WCI  17
MONTROSE, CO   MOCLDY    27  18  69 NW24      30.06R WCI  12
CORTEZ, CO     CLEAR     29  18  63 NW13G24   30.02R WCI  19
COLORADO CITY    N/A     37  18  44 NW17G23   30.23R WCI  28
PAGE, AZ       CLEAR     42  11  28 NW14G21   30.13R
GRAND CANYON   CLEAR     29  12  49 VRB7      30.13R WCI  22
KINGMAN, AZ    CLEAR    N/A N/A N/A N18       30.25R
FLAGSTAFF, AZ  CLEAR     29   8  41 W8        30.11R WCI  21

$$

REGIONAL REPORTS    NEVADA/IDAHO/WYOMING

CITY           SKY/WX    TMP DP  RH WIND       PRES   REMARKS
LAS VEGAS, NV  PTCLDY    52  15  23 E7        30.25R
ELY, NY        CLEAR     19  12  74 CALM      30.22R
ELKO, NV       CLEAR     33  16  49 SW9       30.22S WCI  25
POCATELLO, ID  PTCLDY    33  22  63 SW12      30.20R WCI  24
BURLEY, ID     CLEAR     37  22  54 W6        30.19S WCI  32
FORT BRIDGER,    N/A     20  15  82 W15       30.12R WCI   6
EVANSTON, WY   CLOUDY    17  11  77 W12       30.12R WCI   4
ROCK SPRINGS,  CLEAR     16  11  80 W13       30.07R WCI   2

$$




USA.gov is the U.S. government's official web portal to all federal, state and local government web resources and services.